Regional Weather Roundup
Issued by NWS

Home | Current Version | Previous Version | Graphics & Text | Print | Product List | Glossary Off
Versions: 1 2 3 4 5 6 7 8 9 10 11 12 13 14 15 16 17 18 19 20 21 22 23 24 25 26 27 28 29 30 31 32 33 34 35 36 37 38 39 40 41 42 43 44 45 46 47 48 49

000
ASUS45 KBOU 240107
RWRCO

WEATHER ROUNDUP FOR COLORADO
NATIONAL WEATHER SERVICE DENVER/BOULDER CO
700 PM MDT SUN APR 23 2017

NOTE: "FAIR" INDICATES FEW OR NO CLOUDS BELOW 12000 FEET WITH NO
SIGNIFICANT WEATHER AND/OR OBSTRUCTIONS TO VISIBILITY.

COZ001>005-013-030-031-240200-
...NORTHWEST COLORADO...

CITY           SKY/WX    TMP DP  RH WIND       PRES   REMARKS
CRAIG          FAIR      64  24  21 SW15G23   29.76F
HAYDEN         FAIR      61  27  27 W12       29.78F
MEEKER         FAIR      66  23  19 SW14G21   29.77F
MOUNT WERNER   NOT AVBL
STEAMBOAT SPGS FAIR      60  28  29 W8        29.80F
WALDEN           N/A     54  25  32 SW9       29.88S
$$

COZ006>008-011-240200-
...WEST CENTRAL VALLEYS...

CITY           SKY/WX    TMP DP  RH WIND       PRES   REMARKS
GRAND JUNCTION FAIR      73  25  16 NE7       29.71F
MONTROSE       FAIR      70  20  15 SW14      29.79F
EAGLE          MOCLDY    66  23  19 W18       29.81S
RIFLE          FAIR      70  24  17 W12       29.75F
DELTA          FAIR      75  19  12 SW9       29.76F
NUCLA          NOT AVBL
$$

COZ017>023-064>068-240200-
...SOUTHWEST COLORADO...

CITY           SKY/WX    TMP DP  RH WIND       PRES   REMARKS
DURANGO        FAIR      66  22  18 CALM      29.89F
CORTEZ         FAIR      68  27  21 S8        29.81F
PAGOSA SPRINGS FAIR      63  22  20 W3        29.95F
TELLURIDE      FAIR      56  15  19 S14G20    30.01F
WOLF CREEK PAS FAIR      37  19  48 S21G37    30.19F
$$

COZ009-010-012-014-032>034-037-058>063-240200-
...CENTRAL COLORADO...

CITY           SKY/WX    TMP DP  RH WIND       PRES   REMARKS
ASPEN          FAIR      60  17  18 SW15G24   29.88R
BUENA VISTA    FAIR      62  18  17 S9        29.86F
COPPER MTN     FAIR      45  12  26 W16G24    30.11F
BERTHOUD PASS  FAIR      37  28  70 W15G24    30.12S
COTTONWOOD PAS FAIR      57  10  15 W7G18     29.99F
GUNNISON       FAIR      61  15  16 W14       29.90R
KREMMLING      FAIR      66  18  15 W12G18    29.84F
LEADVILLE      FAIR      51  15  23 SW12G21   29.97F
MONARCH PASS   FAIR      41  14  33 SW31G44   30.22S
SALIDA         FAIR      67  11  11 SW12G23   29.93S
SUNLIGHT       FAIR      41  18  38 SW18G35   30.05S
WILKERSON PASS FAIR      45  19  36 SW9G21    30.08F
$$

COZ069>075-240200-
...SAN LUIS VALLEY/SANGRE DE CRISTO MOUNTAINS...

CITY           SKY/WX    TMP DP  RH WIND       PRES   REMARKS
ALAMOSA        FAIR      65  21  18 SW13      29.92F
LA VETA PASS   FAIR      46  18  31 S33G46    30.13F
SAGUACHE       FAIR      63  14  15 NW15      29.93F
$$

COZ035-036-038>040-240200-
...NORTHERN COLORADO FRONT RANGE...

CITY           SKY/WX    TMP DP  RH WIND       PRES   REMARKS
DENVER INTL AP MOCLDY    68  37  32 S10       29.67F
DMNS CITY PARK   N/A     71  34  25 N8        29.66S
AURORA         MOCLDY    69  35  28 S17       29.69F
FRONT RANGE AP MOCLDY    72  36  26 SE14G23   29.70F
ERIE MUNI ARPT FAIR      69  31  25 N10       29.68S
BOULDER MUN AP FAIR      64  39  39 N6        29.69F
CENTENNIAL     MOCLDY    67  34  29 S15       29.70F
BROOMFIELD     NOT AVBL
FORT COLLINS   FAIR      65  43  44 N8        29.70F
LONGMONT       FAIR      68  42  38 N7        29.70F
$$

COZ041-046-047-076>085-087-088-240200-
...PIKES PEAK/PALMER DIVIDE AND SOUTHERN FOOTHILLS...

CITY           SKY/WX    TMP DP  RH WIND       PRES   REMARKS
COLO. SPRINGS  MOCLDY    66  34  30 S15       29.80F
A. F. ACADEMY  FAIR      62  34  35 S13       29.79F
SCHRIEVER AFB  FAIR      64  34  32 SE14      29.81F
ELLICOTT       FAIR     N/A N/A N/A SE10      29.79F
FALCON         FAIR      62  31  30 S18G25    29.84F
FORT CARSON    FAIR      65  37  34 S6        29.78F
LIMON          FAIR      62  36  37 SE14      29.76F
MONUMENT HILL  FAIR      57  32  38 S18G28    29.82F
TRINIDAD       FAIR      71  25  17 W14       29.79F
$$

COZ042>045-048>051-090-091-240200-
...NORTHEAST COLORADO...

CITY           SKY/WX    TMP DP  RH WIND       PRES   REMARKS
GREELEY ARPT   FAIR      72  37  28 SE10      29.67F
AKRON          FAIR      62  37  39 S9        29.72F
BURLINGTON     NOT AVBL
WRAY           NOT AVBL
STERLING       FAIR      66  41  39 S13       29.68F
HOLYOKE        FAIR      66  37  34 S18       29.72F
FORT MORGAN    FAIR      65  37  34 SE13      29.70F
$$

COZ086-089-092>099-240200-
...SOUTHEAST COLORADO...

CITY           SKY/WX    TMP DP  RH WIND       PRES   REMARKS
PUEBLO         FAIR      75  39  27 SE8       29.69F
LA JUNTA       FAIR      76  38  25 SE13      29.69F
LAMAR          FAIR      73  36  25 S21G28    29.70F
SPRINGFIELD      N/A     68  35  29 S25G36    29.80F
$$



USA.gov is the U.S. government's official web portal to all federal, state and local government web resources and services.